tititudorancea.com
Station Historical Data
Daily Summary for January 7, 2018 Units:  Metric    English   Both
« Previous Day
Next Day »
Daily Weekly Monthly Yearly Custom
  High: Low: Average:
Temperature: -17.8 °C 13.1 °C 20.1 °C
Dew Point: -17.8 °C 6.6 °C 11.2 °C
Humidity: Humidity % 26 % 62 %
Wind Speed: 0 km/h 0 km/h 9.8 km/h
Wind Gust: 0 km/h - -
Wind:- - SSW
Pressure: 0 hPa 1008.7 hPa -
Precipitation: 0 mm    
Historical Graphs
 
 
Ararat weather Find more about Weather in Ararat, AU


 



 


Tabular Data for January 7, 2018
Time Temperature Dew Point Pressure Wind Wind Speed Wind Gust Humidity Rainfall Rate (Hourly)
-17.8 °C -17.8 °C 0 hPa Calm     Humidity % 0 mm
00:00 16.8 °C 12.9 °C 1010.4 hPa South 14.2 km/h 16.7 km/h 78 % 0 mm
00:03 16.7 °C 13.1 °C 1010.4 hPa SSE 7.9 km/h 13 km/h 79 % 0 mm
00:08 16.7 °C 13.4 °C 1010.4 hPa South 16.7 km/h 22.2 km/h 81 % 0 mm
00:11 16.6 °C 13.3 °C 1010.4 hPa South 14.3 km/h 18.5 km/h 81 % 0 mm
00:17 16.6 °C 13.4 °C 1010 hPa South 8 km/h 16.7 km/h 82 % 0 mm
00:19 16.5 °C 13.4 °C 1010 hPa North 11.7 km/h 20.4 km/h 82 % 0 mm
00:24 16.5 °C 13.6 °C 1010.4 hPa SSE 9.2 km/h 18.5 km/h 83 % 0 mm
00:26 16.5 °C 13.6 °C 1010.4 hPa North 9 km/h 13 km/h 83 % 0 mm
00:31 16.5 °C 13.6 °C 1010 hPa SSE 8.5 km/h 14.8 km/h 83 % 0 mm
00:33 16.5 °C 13.6 °C 1010 hPa SSE 9.3 km/h 18.5 km/h 83 % 0 mm
00:38 16.4 °C 13.5 °C 1010.4 hPa North 14 km/h 22.2 km/h 83 % 0 mm
00:43 16.4 °C 13.5 °C 1010.4 hPa South 17.2 km/h 25.9 km/h 83 % 0 mm
00:48 16.4 °C 13.5 °C 1010.4 hPa North 10.8 km/h 24.1 km/h 83 % 0 mm
00:53 16.4 °C 13.5 °C 1011.1 hPa SSW 16.4 km/h 24.1 km/h 83 % 0 mm
00:55 16.4 °C 13.5 °C 1010.7 hPa South 13.8 km/h 18.5 km/h 83 % 0 mm
01:00 16.5 °C 13.6 °C 1010.7 hPa North 17.2 km/h 24.1 km/h 83 % 0 mm
01:05 16.6 °C 13.7 °C 1010.7 hPa South 13.5 km/h 19.3 km/h 83 % 0 mm
01:09 16.6 °C 13.7 °C 1010.4 hPa South 10.9 km/h 13 km/h 83 % 0 mm
01:14 16.6 °C 13.7 °C 1010.7 hPa South 10.9 km/h 24.1 km/h 83 % 0 mm
01:18 16.6 °C 13.7 °C 1010.4 hPa North 10.1 km/h 16.7 km/h 83 % 0 mm
01:23 16.5 °C 13.6 °C 1010.4 hPa South 9.2 km/h 14.8 km/h 83 % 0 mm
01:28 16.4 °C 13.5 °C 1010 hPa North 8 km/h 11.1 km/h 83 % 0 mm
01:31 16.3 °C 13.6 °C 1010 hPa South 10.6 km/h 13 km/h 84 % 0 mm
01:36 16.1 °C 13.4 °C 1009.7 hPa SSE 10 km/h 18.5 km/h 84 % 0 mm
01:39 16 °C 13.3 °C 1009.7 hPa SSE 11.3 km/h 18.5 km/h 84 % 0 mm
01:44 15.7 °C 13.2 °C 1010.4 hPa North 13.2 km/h 18.5 km/h 85 % 0 mm
01:49 15.6 °C 13.1 °C 1010.7 hPa SSW 12.4 km/h 18.5 km/h 85 % 0 mm
01:50 15.6 °C 13.1 °C 1010.7 hPa SSW 14.3 km/h 20.4 km/h 85 % 0 mm
01:55 15.6 °C 13.2 °C 1010.7 hPa South 18 km/h 19.3 km/h 86 % 0 mm
01:57 15.6 °C 13.2 °C 1010.7 hPa SSW 18.2 km/h 29.6 km/h 86 % 0 mm
02:02 15.6 °C 13.2 °C 1010.4 hPa North 13.7 km/h 24.1 km/h 86 % 0 mm
02:07 15.6 °C 13.2 °C 1010.4 hPa South 15 km/h 24.1 km/h 86 % 0 mm
02:12 15.6 °C 13.3 °C 1010.4 hPa South 12.2 km/h 18.5 km/h 86 % 0 mm
02:17 15.7 °C 13.2 °C 1010 hPa SSE 6.6 km/h 18.5 km/h 85 % 0 mm
02:22 15.6 °C 13.1 °C 1010 hPa South 13.2 km/h 14.8 km/h 85 % 0 mm
02:27 15.5 °C 13.2 °C 1010.4 hPa South 8.5 km/h 18.5 km/h 86 % 0 mm
02:33 15.4 °C 13.1 °C 1010 hPa North 11.6 km/h 16.7 km/h 86 % 0 mm
02:38 15.4 °C 13.1 °C 1010 hPa South 9.5 km/h 13 km/h 86 % 0 mm
02:43 15.4 °C 13.3 °C 1010.4 hPa SSW 10.3 km/h 16.7 km/h 87 % 0 mm
02:47 15.5 °C 13.3 °C 1010 hPa South 11.6 km/h 16.7 km/h 87 % 0 mm
02:52 15.5 °C 13.2 °C 1010 hPa SE 5.8 km/h 11.1 km/h 86 % 0 mm
02:57 15.5 °C 13.3 °C 1009.7 hPa SSE 8.4 km/h 12.9 km/h 87 % 0 mm
03:02 15.6 °C 13.4 °C 1009.7 hPa South 9.8 km/h 17.7 km/h 87 % 0 mm
03:07 15.6 °C 13.4 °C 1009.7 hPa North 9 km/h 13 km/h 87 % 0 mm
03:12 15.6 °C 13.4 °C 1010 hPa South 7.2 km/h 14.8 km/h 87 % 0 mm
03:14 15.6 °C 13.4 °C 1010 hPa North 11.1 km/h 14.8 km/h 87 % 0 mm
03:19 15.5 °C 13.3 °C 1009.7 hPa North 8.2 km/h 16.7 km/h 87 % 0 mm
03:24 15.4 °C 13.3 °C 1010 hPa North 8.5 km/h 14.8 km/h 87 % 0 mm
03:27 15.4 °C 13.3 °C 1010 hPa South 10.6 km/h 14.8 km/h 87 % 0 mm
03:32 15.4 °C 13.2 °C 1010.7 hPa SSW 13.8 km/h 22.2 km/h 87 % 0 mm
03:36 15.4 °C 13.2 °C 1010.7 hPa SSW 14.3 km/h 19.3 km/h 87 % 0 mm
03:41 15.3 °C 13.2 °C 1011.1 hPa North 10.9 km/h 17.7 km/h 87 % 0 mm
03:42 15.3 °C 13.2 °C 1011.1 hPa SSW 14.8 km/h 18.5 km/h 87 % 0 mm
03:47 15.3 °C 13.1 °C 1010.7 hPa SSW 11.6 km/h 20.9 km/h 87 % 0 mm
03:48 15.3 °C 13.1 °C 1010.7 hPa South 9.5 km/h 20.4 km/h 87 % 0 mm
03:54 15.2 °C 13.1 °C 1010.7 hPa SSE 11.7 km/h 16.7 km/h 87 % 0 mm
03:59 15.1 °C 12.9 °C 1010.4 hPa North 9 km/h 9.7 km/h 87 % 0 mm
04:03 15.1 °C 12.9 °C 1010.4 hPa SSE 9 km/h 14.8 km/h 87 % 0 mm
04:08 14.9 °C 12.7 °C 1010.4 hPa North 8.2 km/h 13 km/h 87 % 0 mm
04:11 14.8 °C 12.9 °C 1010.4 hPa SSE 8 km/h 11.1 km/h 88 % 0 mm
04:13 14.8 °C 12.9 °C 1010.4 hPa South 9.3 km/h 13 km/h 88 % 0 mm
04:18 14.7 °C 12.8 °C 1010.4 hPa SSE 9.7 km/h 13 km/h 88 % 0 mm
04:23 14.6 °C 12.7 °C 1010.4 hPa SSE 7.1 km/h 11.1 km/h 88 % 0 mm
04:28 14.5 °C 12.6 °C 1010 hPa SSE 8 km/h 13 km/h 88 % 0 mm
04:32 14.4 °C 12.6 °C 1010 hPa SSE 3.2 km/h 7.4 km/h 89 % 0 mm
04:37 14.3 °C 12.5 °C 1010 hPa SSE 7.1 km/h 13 km/h 89 % 0 mm
04:38 14.3 °C 12.5 °C 1010 hPa North 6 km/h 13 km/h 89 % 0 mm
04:43 14.2 °C 12.4 °C 1010 hPa SSE 6.1 km/h 9.3 km/h 89 % 0 mm
04:45 14.1 °C 12.3 °C 1010.4 hPa SSE 8.7 km/h 11.3 km/h 89 % 0 mm
04:49 14.1 °C 12.4 °C 1010.4 hPa South 10.1 km/h 14.8 km/h 90 % 0 mm
04:54 14 °C 12.4 °C 1010.4 hPa South 4.3 km/h 11.3 km/h 90 % 0 mm
04:59 13.9 °C 12.3 °C 1010.4 hPa South 8 km/h 9.7 km/h 90 % 0 mm
05:00 13.9 °C 12.3 °C 1010.4 hPa North 8.7 km/h 9.7 km/h 90 % 0 mm
05:05 13.9 °C 12.3 °C 1010.4 hPa North 8.9 km/h 11.1 km/h 90 % 0 mm
05:10 13.8 °C 12.2 °C 1011.1 hPa South 10.6 km/h 13 km/h 90 % 0 mm
05:15 13.8 °C 12.4 °C 1010.7 hPa North 5.1 km/h 9.3 km/h 91 % 0 mm
05:20 13.8 °C 12.3 °C 1010.7 hPa North 8.9 km/h 9.3 km/h 91 % 0 mm
05:26 13.7 °C 12.3 °C 1010.7 hPa South 5.6 km/h 12.9 km/h 91 % 0 mm
05:30 13.7 °C 12.2 °C 1011.1 hPa South 7.9 km/h 16.7 km/h 91 % 0 mm
05:35 13.6 °C 12.2 °C 1011.1 hPa North 3.2 km/h 7.4 km/h 91 % 0 mm
05:37 13.6 °C 12.2 °C 1011.1 hPa South 5.5 km/h 8 km/h 91 % 0 mm
05:42 13.5 °C 12.1 °C 1011.1 hPa South 8 km/h 13 km/h 91 % 0 mm
05:45 13.5 °C 12.1 °C 1011.1 hPa South 4.8 km/h 8 km/h 91 % 0 mm
05:50 13.4 °C 12.1 °C 1011.1 hPa South 6 km/h 11.1 km/h 92 % 0 mm
05:56 13.3 °C 12 °C 1011.1 hPa South 8.5 km/h 12.9 km/h 92 % 0 mm
05:58 13.3 °C 12 °C 1011.1 hPa South 6.8 km/h 11.1 km/h 92 % 0 mm
06:03 13.2 °C 11.9 °C 1011.1 hPa South 5 km/h 11.1 km/h 92 % 0 mm
06:07 13.2 °C 11.9 °C 1010.7 hPa South 7.4 km/h 9.3 km/h 92 % 0 mm
06:12 13.2 °C 11.9 °C 1011.1 hPa North 4.2 km/h 9.7 km/h 92 % 0 mm
06:17 13.2 °C 12.1 °C 1011.4 hPa South 8.5 km/h 11.1 km/h 93 % 0 mm
06:22 13.1 °C 12 °C 1011.4 hPa North 7.2 km/h 9.3 km/h 93 % 0 mm
06:27 13.2 °C 12.1 °C 1011.1 hPa South 6.1 km/h 9.7 km/h 93 % 0 mm
06:29 13.2 °C 12.1 °C 1011.4 hPa North 5.3 km/h 9.3 km/h 93 % 0 mm
06:34 13.2 °C 12.1 °C 1011.4 hPa North 4.2 km/h 11.1 km/h 93 % 0 mm
06:39 13.2 °C 12.1 °C 1011.7 hPa South 4.7 km/h 11.1 km/h 93 % 0 mm
06:43 13.2 °C 12.1 °C 1011.7 hPa South 7.6 km/h 13 km/h 93 % 0 mm
06:48 13.3 °C 12.2 °C 1011.7 hPa South 6.6 km/h 11.3 km/h 93 % 0 mm
06:49 13.3 °C 12.2 °C 1011.7 hPa South 7.4 km/h 11.1 km/h 93 % 0 mm
06:54 13.4 °C 12.3 °C 1011.7 hPa North 6.6 km/h 11.1 km/h 93 % 0 mm
06:59 13.4 °C 12.3 °C 1011.4 hPa North 8 km/h 11.1 km/h 93 % 0 mm
07:01 13.5 °C 12.4 °C 1011.7 hPa North 7.2 km/h 9.3 km/h 93 % 0 mm
07:06 13.6 °C 12.4 °C 1011.7 hPa North 3.9 km/h 5.6 km/h 93 % 0 mm
07:09 13.6 °C 12.7 °C 1011.7 hPa South 7.4 km/h 11.1 km/h 94 % 0 mm
07:10 13.6 °C 12.7 °C 1011.7 hPa North 6.9 km/h 11.1 km/h 94 % 0 mm
07:15 13.8 °C 12.7 °C 1012.1 hPa South 8.5 km/h 13 km/h 93 % 0 mm
07:16 13.8 °C 12.7 °C 1012.1 hPa North 6.9 km/h 11.1 km/h 93 % 0 mm
07:21 14 °C 13.1 °C 1012.1 hPa North 9 km/h 14.8 km/h 94 % 0 mm
07:23 14.1 °C 13.1 °C 1012.1 hPa North 8.4 km/h 13 km/h 94 % 0 mm
07:28 14.2 °C 13.1 °C 1012.1 hPa South 11.9 km/h 18.5 km/h 93 % 0 mm
07:33 14.3 °C 13.2 °C 1011.7 hPa SSE 10.8 km/h 16.7 km/h 93 % 0 mm
07:35 14.3 °C 13.2 °C 1011.7 hPa SSE 10.1 km/h 16.7 km/h 93 % 0 mm
07:40 14.5 °C 13.4 °C 1012.1 hPa North 10.3 km/h 18.5 km/h 93 % 0 mm
07:45 14.7 °C 13.6 °C 1012.1 hPa South 6 km/h 13 km/h 93 % 0 mm
07:50 14.7 °C 13.4 °C 1012.4 hPa North 9.3 km/h 18.5 km/h 92 % 0 mm
07:52 14.8 °C 13.5 °C 1012.8 hPa South 8.5 km/h 16.7 km/h 92 % 0 mm
07:57 15.1 °C 13.8 °C 1012.4 hPa SSE 6.9 km/h 13 km/h 92 % 0 mm
08:03 15.1 °C 13.7 °C 1012.4 hPa North 13.2 km/h 18.5 km/h 91 % 0 mm
08:08 15.2 °C 13.6 °C 1013.1 hPa North 8 km/h 16.1 km/h 90 % 0 mm
08:13 15.3 °C 13.7 °C 1012.8 hPa South 9.8 km/h 16.7 km/h 90 % 0 mm
08:18 15.4 °C 13.7 °C 1012.8 hPa South 10 km/h 13 km/h 89 % 0 mm
08:23 15.6 °C 13.6 °C 1013.1 hPa North 13.4 km/h 18.5 km/h 88 % 0 mm
08:28 15.7 °C 13.5 °C 1013.1 hPa SSE 11.7 km/h 20.4 km/h 87 % 0 mm
08:33 15.7 °C 13.6 °C 1013.1 hPa SSE 13.8 km/h 19.3 km/h 87 % 0 mm
08:38 15.9 °C 13.6 °C 1013.1 hPa SSE 11.4 km/h 18.5 km/h 86 % 0 mm
08:43 16.1 °C 13.4 °C 1012.8 hPa North 27.8 km/h 27.8 km/h 84 % 0 mm
08:47 16.1 °C 13.2 °C 1012.8 hPa South 14.3 km/h 27.8 km/h 83 % 0 mm
08:52 16.4 °C 13.3 °C 1012.8 hPa North 12.9 km/h 20.9 km/h 82 % 0 mm
08:57 16.7 °C 13.4 °C 1012.8 hPa SSE 18.3 km/h 24.1 km/h 81 % 0 mm
09:02 17 °C 13.1 °C 1012.8 hPa South 13 km/h 20.4 km/h 78 % 0 mm
09:07 17 °C 13.3 °C 1012.4 hPa SSE 13 km/h 20.4 km/h 79 % 0 mm
09:12 17.3 °C 13 °C 1011.7 hPa SSE 16.3 km/h 24.1 km/h 76 % 0 mm
09:16 17 °C 12.9 °C 1011.7 hPa SE 9.8 km/h 16.7 km/h 77 % 0 mm
09:21 16.8 °C 12.9 °C 1011.7 hPa SE 7.7 km/h 13 km/h 78 % 0 mm
09:26 16.7 °C 12.6 °C 1011.7 hPa SE 15.9 km/h 20.9 km/h 77 % 0 mm
09:31 16.7 °C 12.6 °C 1011.7 hPa SSE 13.8 km/h 20.4 km/h 77 % 0 mm
09:32 16.7 °C 12.6 °C 1011.7 hPa SE 12.9 km/h 20.4 km/h 77 % 0 mm
09:37 16.7 °C 12.9 °C 1012.1 hPa SE 11.4 km/h 17.7 km/h 78 % 0 mm
09:41 16.9 °C 13 °C 1012.1 hPa SE 11.3 km/h 14.5 km/h 78 % 0 mm
09:46 17.1 °C 13 °C 1012.1 hPa North 13.4 km/h 18.5 km/h 77 % 0 mm
09:47 17.1 °C 13 °C 1012.1 hPa SE 13 km/h 27.4 km/h 77 % 0 mm
09:49 17.1 °C 12.8 °C 1011.7 hPa North 13 km/h 20.4 km/h 76 % 0 mm
09:54 17.1 °C 12.8 °C 1011.4 hPa South 12.9 km/h 20.4 km/h 76 % 0 mm
09:58 17.2 °C 13.1 °C 1011.7 hPa South 10.8 km/h 11.3 km/h 77 % 0 mm
10:03 17.2 °C 12.9 °C 1012.1 hPa SSE 10.5 km/h 22.2 km/h 76 % 0 mm
10:04 17.2 °C 12.9 °C 1012.4 hPa SSE 9.7 km/h 14.5 km/h 76 % 0 mm
10:09 17.3 °C 13 °C 1013.1 hPa South 9.8 km/h 16.7 km/h 76 % 0 mm
10:14 17.4 °C 12.9 °C 1012.1 hPa South 11.7 km/h 17.7 km/h 75 % 0 mm
10:19 17.4 °C 12.9 °C 1012.4 hPa SSE 14.2 km/h 18.5 km/h 75 % 0 mm
10:24 17.5 °C 13 °C 1012.1 hPa SSE 15.6 km/h 19.3 km/h 75 % 0 mm
10:29 17.7 °C 13 °C 1012.1 hPa SSW 12.1 km/h 19.3 km/h 74 % 0 mm
10:32 17.8 °C 12.9 °C 1012.8 hPa SSE 11.1 km/h 18.5 km/h 73 % 0 mm
10:37 18.3 °C 13.2 °C 1013.1 hPa South 13.7 km/h 18.5 km/h 72 % 0 mm
10:40 18.4 °C 13.1 °C 1013.1 hPa SSE 12.2 km/h 14.8 km/h 71 % 0 mm
10:45 18.7 °C 13.3 °C 1012.8 hPa SSE 13.8 km/h 17.7 km/h 71 % 0 mm
10:50 18.9 °C 13.1 °C 1012.4 hPa SSE 14.8 km/h 24.1 km/h 69 % 0 mm
10:51 18.9 °C 13.1 °C 1012.4 hPa SSE 12.4 km/h 25.9 km/h 69 % 0 mm
10:56 18.7 °C 13.1 °C 1012.8 hPa South 14 km/h 24.1 km/h 70 % 0 mm
11:01 18.6 °C 13 °C 1012.4 hPa SSE 11.9 km/h 18.5 km/h 70 % 0 mm
11:02 18.6 °C 13.1 °C 1012.8 hPa South 11.3 km/h 18.5 km/h 70 % 0 mm
11:12 19 °C 13.2 °C 1012.8 hPa South 12.4 km/h 22.5 km/h 69 % 0 mm
11:17 19.1 °C 12.8 °C 1012.8 hPa SSE 9.8 km/h 16.7 km/h 67 % 0 mm
11:19 19.2 °C 12.7 °C 1012.8 hPa South 15.4 km/h 25.9 km/h 66 % 0 mm
11:24 19.7 °C 13.1 °C 1013.1 hPa SSE 10.3 km/h 18.5 km/h 66 % 0 mm
11:27 19.9 °C 13.3 °C 1013.1 hPa South 9.7 km/h 24.1 km/h 66 % 0 mm
11:32 20.2 °C 13.2 °C 1012.8 hPa South 12.9 km/h 16.7 km/h 64 % 0 mm
11:37 20.4 °C 12.9 °C 1012.8 hPa South 14.5 km/h 18.5 km/h 62 % 0 mm
11:42 20.7 °C 13.2 °C 1012.8 hPa SSE 15.9 km/h 18.5 km/h 62 % 0 mm
11:43 20.7 °C 12.9 °C 1012.4 hPa South 15 km/h 20.4 km/h 61 % 0 mm
11:48 20.6 °C 12.8 °C 1012.1 hPa South 11.7 km/h 22.2 km/h 61 % 0 mm
11:53 20.4 °C 12.7 °C 1012.4 hPa South 9.5 km/h 18.5 km/h 61 % 0 mm
11:55 20.4 °C 12.4 °C 1012.8 hPa South 18.3 km/h 20.4 km/h 60 % 0 mm
12:00 20.2 °C 12.2 °C 1012.8 hPa SSW 20.3 km/h 24.1 km/h 60 % 0 mm
12:05 20.8 °C 12.7 °C 1012.8 hPa SSE 18.3 km/h 24.1 km/h 60 % 0 mm
12:10 21.4 °C 12.8 °C 1012.8 hPa SE 15.9 km/h 22.2 km/h 58 % 0 mm
12:15 21.9 °C 12.5 °C 1012.8 hPa SSW 11.6 km/h 18.5 km/h 55 % 0 mm
12:20 21.9 °C 12.2 °C 1013.1 hPa North 17.5 km/h 20.4 km/h 54 % 0 mm
12:25 21.8 °C 12.1 °C 1013.1 hPa SSE 8.4 km/h 11.1 km/h 54 % 0 mm
12:30 22.2 °C 12.2 °C 1013.1 hPa South 9.2 km/h 16.1 km/h 53 % 0 mm
12:34 22.6 °C 13.1 °C 1013.1 hPa SSE 12.9 km/h 18.5 km/h 55 % 0 mm
12:39 23 °C 12.3 °C 1012.8 hPa SSE 16.9 km/h 25.9 km/h 51 % 0 mm
12:44 23.3 °C 12.3 °C 1012.4 hPa SE 7.7 km/h 11.1 km/h 50 % 0 mm
12:46 23.6 °C 12.3 °C 1012.4 hPa SSE 11.6 km/h 29.6 km/h 49 % 0 mm
12:51 23.3 °C 11.4 °C 1012.1 hPa North 14.3 km/h 20.4 km/h 47 % 0 mm
12:52 23.2 °C 11.6 °C 1012.1 hPa South 10.5 km/h 20.4 km/h 48 % 0 mm
12:54 23.2 °C 12.2 °C 1012.1 hPa SSE 16.1 km/h 22.2 km/h 50 % 0 mm
12:59 23.5 °C 11.8 °C 1012.1 hPa SSE 12.2 km/h 20.4 km/h 48 % 0 mm
13:04 23.9 °C 11.9 °C 1012.1 hPa SE 10 km/h 17.7 km/h 47 % 0 mm
13:06 23.9 °C 11.6 °C 1012.4 hPa SSE 13.7 km/h 20.4 km/h 46 % 0 mm
13:11 23.6 °C 11.3 °C 1012.4 hPa SE 13.8 km/h 17.7 km/h 46 % 0 mm
13:12 23.6 °C 11.3 °C 1012.4 hPa SSE 15.4 km/h 17.7 km/h 46 % 0 mm
13:17 23.8 °C 10.8 °C 1012.1 hPa SE 12.9 km/h 18.5 km/h 44 % 0 mm
13:22 24.3 °C 11.2 °C 1012.1 hPa South 14.5 km/h 18.5 km/h 44 % 0 mm
13:27 24.4 °C 10.7 °C 1012.1 hPa SE 9.7 km/h 18.5 km/h 42 % 0 mm
13:32 24.7 °C 10.6 °C 1012.1 hPa SSE 12.2 km/h 18.5 km/h 41 % 0 mm
13:33 24.7 °C 10.6 °C 1012.1 hPa SSE 12.7 km/h 18.5 km/h 41 % 0 mm
13:38 25.1 °C 10.9 °C 1011.7 hPa South 14.2 km/h 24.1 km/h 41 % 0 mm
13:43 24.7 °C 10.6 °C 1012.1 hPa South 13.7 km/h 14.8 km/h 41 % 0 mm
13:46 24.5 °C 10.4 °C 1012.1 hPa South 11.1 km/h 16.7 km/h 41 % 0 mm
13:51 24.4 °C 10.7 °C 1011.7 hPa South 14 km/h 18.5 km/h 42 % 0 mm
13:56 24.7 °C 10.6 °C 1011.7 hPa SSE 7.2 km/h 9.3 km/h 41 % 0 mm
13:57 24.8 °C 10.6 °C 1012.1 hPa SSW 7.1 km/h 14.5 km/h 41 % 0 mm
14:02 24.8 °C 10.3 °C 1012.1 hPa South 8.5 km/h 11.3 km/h 40 % 0 mm
14:06 24.9 °C 10 °C 1011.7 hPa SSW 12.4 km/h 16.7 km/h 39 % 0 mm
14:11 24.5 °C 10.4 °C 1012.1 hPa South 10.9 km/h 18.5 km/h 41 % 0 mm
14:13 24.6 °C 10.4 °C 1011.7 hPa South 14.5 km/h 20.4 km/h 41 % 0 mm
14:18 24.9 °C 10 °C 1011.4 hPa SSE 11.6 km/h 18.5 km/h 39 % 0 mm
14:21 25.1 °C 9.8 °C 1011.4 hPa SE 16.3 km/h 18.5 km/h 38 % 0 mm
14:23 25.2 °C 9.8 °C 1011.4 hPa SSE 9.3 km/h 14.8 km/h 38 % 0 mm
14:28 25.2 °C 9.9 °C 1011.4 hPa South 5.5 km/h 16.7 km/h 38 % 0 mm
14:29 25.3 °C 9.9 °C 1011.4 hPa SSE 10.1 km/h 10.1 km/h 38 % 0 mm
14:34 25.3 °C 10 °C 1011.4 hPa South 11.4 km/h 18.5 km/h 38 % 0 mm
14:37 25.4 °C 10.5 °C 1011.4 hPa SSE 12.6 km/h 18.5 km/h 39 % 0 mm
14:42 25.7 °C 10.7 °C 1011.4 hPa SE 9.5 km/h 16.7 km/h 39 % 0 mm
14:47 25.4 °C 9.7 °C 1011.4 hPa South 6 km/h 20.4 km/h 37 % 0 mm
14:51 25.4 °C 9.3 °C 1011.4 hPa SSW 15 km/h 22.2 km/h 36 % 0 mm
14:56 25.6 °C 9 °C 1011.4 hPa SSW 4.7 km/h 9.7 km/h 35 % 0 mm
15:01 26 °C 8.9 °C 1011.4 hPa South 10.6 km/h 13 km/h 34 % 0 mm
15:06 26.1 °C 8.6 °C 1011.1 hPa SE 17.1 km/h 20.4 km/h 33 % 0 mm
15:11 26.6 °C 8.5 °C 1011.1 hPa SE 7.2 km/h 9.3 km/h 32 % 0 mm
15:16 26.9 °C 7.9 °C 1011.1 hPa SE 10.3 km/h 13 km/h 30 % 0 mm
15:17 27 °C 8.4 °C 1011.1 hPa SSW 11.6 km/h 16.7 km/h 31 % 0 mm
15:22 26.9 °C 7.3 °C 1010.7 hPa South 11.1 km/h 16.7 km/h 29 % 0 mm
15:27 27.1 °C 8.1 °C 1010.7 hPa South 7.9 km/h 18.5 km/h 30 % 0 mm
15:32 27.4 °C 8.8 °C 1010.7 hPa South 14 km/h 18.5 km/h 31 % 0 mm
15:37 27.3 °C 8.2 °C 1010.7 hPa SW 12.7 km/h 18.5 km/h 30 % 0 mm
15:41 27.1 °C 8.1 °C 1010.4 hPa SE 12.1 km/h 18.5 km/h 30 % 0 mm
15:46 26.7 °C 7.7 °C 1010.4 hPa SSW 9.2 km/h 13 km/h 30 % 0 mm
15:51 26.5 °C 7.5 °C 1010.4 hPa SSW 4.8 km/h 7.4 km/h 30 % 0 mm
15:52 26.6 °C 8.6 °C 1010.7 hPa SSE 7.4 km/h 11.3 km/h 32 % 0 mm
15:57 27.1 °C 7 °C 1010.7 hPa South 9.3 km/h 16.7 km/h 28 % 0 mm
16:02 27 °C 6.9 °C 1010.7 hPa SSW 3.5 km/h 7.4 km/h 28 % 0 mm
16:04 27.2 °C 6.6 °C 1010.7 hPa SSW 6 km/h 7.4 km/h 27 % 0 mm
16:09 27.3 °C 7.7 °C 1010.4 hPa SSE 9.5 km/h 18.5 km/h 29 % 0 mm
16:12 27.3 °C 8.2 °C 1010.4 hPa SSE 7.7 km/h 11.1 km/h 30 % 0 mm
16:17 27.4 °C 8.3 °C 1010.4 hPa SSE 9.5 km/h 14.8 km/h 30 % 0 mm
16:20 27.4 °C 8.3 °C 1010.4 hPa South 11.6 km/h 16.7 km/h 30 % 0 mm
16:29 27.8 °C 8.6 °C 1010.4 hPa SE 9 km/h 9.3 km/h 30 % 0 mm
16:34 28.1 °C 8.9 °C 1010.4 hPa SE 7.6 km/h 11.1 km/h 30 % 0 mm
16:40 28 °C 7.8 °C 1010 hPa SSE 5.6 km/h 7.4 km/h 28 % 0 mm
16:43 28.1 °C 7.9 °C 1010 hPa SSE 2.6 km/h 5.6 km/h 28 % 0 mm
16:49 28.6 °C 8.3 °C 1010 hPa SSE 7.7 km/h 13 km/h 28 % 0 mm
16:52 28.7 °C 8.3 °C 1010 hPa South 8.4 km/h 11.1 km/h 28 % 0 mm
16:56 28.4 °C 8.2 °C 1010 hPa South 8.7 km/h 13 km/h 28 % 0 mm
17:02 28.3 °C 8.1 °C 1009.7 hPa SSE 6.4 km/h 14.8 km/h 28 % 0 mm
17:07 28.3 °C 7.6 °C 1009.7 hPa South 8.5 km/h 11.1 km/h 27 % 0 mm
17:12 28.3 °C 7.5 °C 1009.7 hPa South 9.2 km/h 14.8 km/h 27 % 0 mm
17:17 28.1 °C 6.8 °C 1009.4 hPa South 10 km/h 18.5 km/h 26 % 0 mm
17:19 28.1 °C 6.7 °C 1009.4 hPa South 8.5 km/h 16.7 km/h 26 % 0 mm
17:24 27.9 °C 8.3 °C 1009.4 hPa SSE 4.2 km/h 11.1 km/h 29 % 0 mm
17:30 28.1 °C 7.8 °C 1009.4 hPa SSE 10.8 km/h 14.8 km/h 28 % 0 mm
17:35 28.5 °C 7.7 °C 1009.4 hPa South 14.6 km/h 20.4 km/h 27 % 0 mm
17:40 29.1 °C 8.2 °C 1009 hPa SSE 8.5 km/h 16.7 km/h 27 % 0 mm
17:42 29.2 °C 8.2 °C 1009 hPa SSE 7.4 km/h 19.3 km/h 27 % 0 mm
17:43 29.2 °C 7.7 °C 1009 hPa SSE 15.1 km/h 15.1 km/h 26 % 0 mm
17:48 29.1 °C 8.2 °C 1009 hPa SE 16.6 km/h 22.2 km/h 27 % 0 mm
17:53 28.8 °C 7.9 °C 1009 hPa South 14 km/h 18.5 km/h 27 % 0 mm
17:56 28.6 °C 8.3 °C 1009.4 hPa South 10.3 km/h 16.7 km/h 28 % 0 mm
18:01 28.6 °C 8.3 °C 1009 hPa South 10 km/h 16.7 km/h 28 % 0 mm
18:06 28.5 °C 7.7 °C 1009 hPa South 9 km/h 13 km/h 27 % 0 mm
18:11 28.7 °C 7.8 °C 1009 hPa South 9.2 km/h 14.8 km/h 27 % 0 mm
18:16 28.7 °C 7.3 °C 1009 hPa SSE 11.3 km/h 14.8 km/h 26 % 0 mm
18:21 28.6 °C 7.8 °C 1009 hPa South 2.9 km/h 7.4 km/h 27 % 0 mm
18:24 28.7 °C 7.8 °C 1009 hPa SSE 4.3 km/h 14.8 km/h 27 % 0 mm
18:30 28.6 °C 7.7 °C 1009 hPa SSE 9.8 km/h 16.7 km/h 27 % 0 mm
18:35 28.2 °C 8 °C 1009 hPa SSE 11.9 km/h 20.4 km/h 28 % 0 mm
18:41 27.9 °C 8.2 °C 1008.7 hPa SE 2.1 km/h 11.1 km/h 29 % 0 mm
18:43 27.9 °C 8.2 °C 1009 hPa SE 2.4 km/h 11.1 km/h 29 % 0 mm
18:47 27.8 °C 8.1 °C 1009 hPa SSE 7.7 km/h 11.1 km/h 29 % 0 mm
18:52 27.8 °C 7.7 °C 1009 hPa SSE 7.2 km/h 11.1 km/h 28 % 0 mm
18:57 27.9 °C 8.2 °C 1009 hPa SSE 11.4 km/h 12.9 km/h 29 % 0 mm
18:59 27.8 °C 7.7 °C 1009 hPa SSE 9.3 km/h 14.8 km/h 28 % 0 mm
19:03 27.8 °C 8.1 °C 1009 hPa SSE 8.7 km/h 9.3 km/h 29 % 0 mm
19:06 27.7 °C 8.1 °C 1009 hPa SSE 6.3 km/h 9.3 km/h 29 % 0 mm
19:11 27.7 °C 8.5 °C 1009 hPa SSE 5 km/h 9.3 km/h 30 % 0 mm
19:16 27.6 °C 8.4 °C 1009 hPa SSE 5.6 km/h 9.3 km/h 30 % 0 mm
19:19 27.6 °C 8.9 °C 1009 hPa SE 11.4 km/h 16.7 km/h 31 % 0 mm
19:23 27.5 °C 8.8 °C 1009 hPa SE 9.8 km/h 11.1 km/h 31 % 0 mm
19:26 27.5 °C 8.8 °C 1009 hPa SE 6.4 km/h 11.3 km/h 31 % 0 mm
19:31 27.5 °C 8.8 °C 1009.4 hPa SE 5.6 km/h 9.7 km/h 31 % 0 mm
19:36 27.4 °C 8.8 °C 1009.4 hPa SE 6.4 km/h 7.4 km/h 31 % 0 mm
19:41 27.2 °C 8.6 °C 1009.4 hPa SE 8.5 km/h 13 km/h 31 % 0 mm
19:42 27.2 °C 8.6 °C 1009.4 hPa SE 8.9 km/h 13 km/h 31 % 0 mm
19:44 27 °C 8.4 °C 1009.4 hPa SE 5.6 km/h 11.1 km/h 31 % 0 mm
19:49 26.7 °C 8.7 °C 1009.4 hPa SE 6.8 km/h 7.4 km/h 32 % 0 mm
19:50 26.7 °C 8.7 °C 1009.4 hPa SE 5.5 km/h 7.4 km/h 32 % 0 mm
19:55 26.4 °C 8.9 °C 1009.4 hPa SE 4.2 km/h 9.3 km/h 33 % 0 mm
19:57 26.4 °C 8.8 °C 1009.4 hPa SE 3.7 km/h 5.6 km/h 33 % 0 mm
19:58 26.3 °C 8.7 °C 1009.4 hPa SE 6.8 km/h 6.8 km/h 33 % 0 mm
20:03 26.2 °C 8.6 °C 1009.7 hPa SE 3.9 km/h 5.6 km/h 33 % 0 mm
20:08 26.1 °C 8.5 °C 1009.4 hPa SE 0.8 km/h 1.9 km/h 33 % 0 mm
20:14 26 °C 8.9 °C 1009.4 hPa Calm     34 % 0 mm
20:19 25.9 °C 9.3 °C 1009.7 hPa Calm     35 % 0 mm
20:22 25.8 °C 9.2 °C 1009.7 hPa Calm   1.9 km/h 35 % 0 mm
20:28 25.5 °C 8.9 °C 1009.7 hPa Calm     35 % 0 mm
20:34 25.2 °C 9.1 °C 1009.7 hPa Calm     36 % 0 mm
20:36 25.2 °C 9.4 °C 1009.7 hPa Calm     37 % 0 mm
20:41 24.9 °C 9.7 °C 1009.4 hPa Calm     38 % 0 mm
20:43 24.8 °C 9.5 °C 1009.4 hPa Calm   1.9 km/h 38 % 0 mm
20:48 24.4 °C 9.9 °C 1009.4 hPa Calm     40 % 0 mm
20:53 24.2 °C 9.7 °C 1009.4 hPa Calm     40 % 0 mm
20:54 24.2 °C 9.7 °C 1009.4 hPa Calm     40 % 0 mm
20:59 23.7 °C 9.3 °C 1009.7 hPa SSW 10.5 km/h 14.8 km/h 40 % 0 mm
21:02 23.7 °C 10.1 °C 1009.4 hPa SSW 9.8 km/h 11.3 km/h 42 % 0 mm
21:07 23.6 °C 10.7 °C 1009.4 hPa SW 11.6 km/h 18.5 km/h 44 % 0 mm
21:08 23.6 °C 10.6 °C 1009.4 hPa SW 12.6 km/h 18.5 km/h 44 % 0 mm
21:09 23.5 °C 10.9 °C 1009.7 hPa SSW 13.8 km/h 18.5 km/h 45 % 0 mm
21:14 23.1 °C 11.2 °C 1009.7 hPa SW 8.7 km/h 18.5 km/h 47 % 0 mm
21:18 22.9 °C 11 °C 1009.7 hPa SW 9.2 km/h 14.8 km/h 47 % 0 mm
21:23 22.5 °C 11.2 °C 1009.4 hPa SSW 10 km/h 14.8 km/h 49 % 0 mm
21:26 22.3 °C 11.3 °C 1009.7 hPa SSW 13.2 km/h 18.5 km/h 50 % 0 mm
21:32 21.9 °C 11.3 °C 1009.7 hPa SSW 14.5 km/h 20.4 km/h 51 % 0 mm
21:34 21.9 °C 11.3 °C 1009.7 hPa SSW 9.5 km/h 14.8 km/h 51 % 0 mm
21:39 21.6 °C 11.3 °C 1009.7 hPa South 8.2 km/h 16.7 km/h 52 % 0 mm
21:41 21.5 °C 11.2 °C 1009.7 hPa SSW 10.3 km/h 13 km/h 52 % 0 mm
21:43 21.4 °C 11.4 °C 1009.7 hPa SSW 11.3 km/h 16.7 km/h 53 % 0 mm
21:48 21.2 °C 11.3 °C 1009.7 hPa SSW 12.2 km/h 13 km/h 53 % 0 mm
21:52 21.1 °C 11.4 °C 1009.7 hPa SSW 10.5 km/h 16.7 km/h 54 % 0 mm
21:57 20.9 °C 11.3 °C 1009.7 hPa SSW 11.1 km/h 18.5 km/h 54 % 0 mm
22:01 20.8 °C 11.4 °C 1009.7 hPa SSW 9 km/h 13 km/h 55 % 0 mm
22:06 20.6 °C 11.2 °C 1009.7 hPa SSW 7.1 km/h 12.9 km/h 55 % 0 mm
22:07 20.6 °C 11.2 °C 1009.7 hPa North 11.7 km/h 18.5 km/h 55 % 0 mm
22:12 20.4 °C 11.3 °C 1009.7 hPa South 10.1 km/h 16.7 km/h 56 % 0 mm
22:17 20.1 °C 11.3 °C 1009.7 hPa SSW 10.5 km/h 19.3 km/h 57 % 0 mm
22:22 19.9 °C 11.4 °C 1009.7 hPa SSW 12.6 km/h 16.7 km/h 58 % 0 mm
22:23 19.8 °C 11.3 °C 1009.7 hPa SSW 9.5 km/h 18.5 km/h 58 % 0 mm
22:28 19.6 °C 11.1 °C 1009.7 hPa SSW 10.8 km/h 17.7 km/h 58 % 0 mm
22:33 19.4 °C 11.2 °C 1009.7 hPa SSW 9.8 km/h 18.5 km/h 59 % 0 mm
22:38 19.3 °C 11.1 °C 1009.7 hPa SSW 9.7 km/h 18.5 km/h 59 % 0 mm
22:43 19.1 °C 11.1 °C 1009.7 hPa SSW 11.1 km/h 22.2 km/h 60 % 0 mm
22:45 19 °C 11.1 °C 1009.7 hPa South 10 km/h 13 km/h 60 % 0 mm
22:50 18.7 °C 10.7 °C 1009.7 hPa SW 11.4 km/h 18.5 km/h 60 % 0 mm
22:53 18.6 °C 10.6 °C 1009.7 hPa SW 8.7 km/h 11.1 km/h 60 % 0 mm
22:58 18.3 °C 10.9 °C 1009.7 hPa SSW 9.2 km/h 16.7 km/h 62 % 0 mm
22:59 18.2 °C 10.8 °C 1009.7 hPa South 12.4 km/h 16.7 km/h 62 % 0 mm
23:04 17.9 °C 10.7 °C 1009.7 hPa SSW 10 km/h 13 km/h 63 % 0 mm
23:08 17.7 °C 10.6 °C 1009.7 hPa SSW 9.5 km/h 18.5 km/h 63 % 0 mm
23:13 17.4 °C 10.6 °C 1009.7 hPa SSW 12.1 km/h 18.5 km/h 64 % 0 mm
23:14 17.4 °C 10.5 °C 1010 hPa SW 11.6 km/h 17.7 km/h 64 % 0 mm
23:15 17.3 °C 10.7 °C 1009.7 hPa SW 9.7 km/h 14.8 km/h 65 % 0 mm
23:19 17.2 °C 10.6 °C 1009.7 hPa SSW 15.1 km/h 20.4 km/h 65 % 0 mm
23:24 16.9 °C 10.5 °C 1010 hPa SSW 7.2 km/h 9.3 km/h 66 % 0 mm
23:25 16.9 °C 10.5 °C 1010 hPa SSW 6.9 km/h 11.1 km/h 66 % 0 mm
23:30 16.7 °C 10.3 °C 1010 hPa SSW 7.7 km/h 11.3 km/h 66 % 0 mm
23:32 16.7 °C 10.5 °C 1010 hPa SSW 5.5 km/h 7.4 km/h 67 % 0 mm
23:37 16.5 °C 10.3 °C 1010 hPa SSW 9.3 km/h 14.8 km/h 67 % 0 mm
23:39 16.4 °C 10.2 °C 1010 hPa SSW 8 km/h 13 km/h 67 % 0 mm
23:44 16.2 °C 10.3 °C 1010 hPa SSW 15.8 km/h 20.4 km/h 68 % 0 mm
23:46 16.1 °C 10.2 °C 1010 hPa SSW 14.6 km/h 18.5 km/h 68 % 0 mm
23:51 15.9 °C 10.1 °C 1010 hPa SSW 9.3 km/h 11.3 km/h 68 % 0 mm
23:57 15.8 °C 10.1 °C 1010 hPa SSW 15.9 km/h 22.2 km/h 69 % 0 mm
Ararat Weather
Compliments of Weather Underground - 2.5 mb
Click here to send mail.


ABOUT

Live weather data from Ararat, Victoria, Australia, 3377
Data uploaded from Cumulus every 5 minutes to Weather Underground.
This site then downloads the raw data for formatting and display.
Metric and imperial data can be displayed. Graphs and historical data available.
Includes Sun and Moon times and rain image live from BOM.

Check out Ararat Weather on Facebook, Twitter and Google +

Help support ongoing costs by checking out the ads





Follow @AraratWeather